STARLINK-6189, 56377

Orbit data source: Space-Track

STARLINK-6189, 56377 is a payload satellite owned by SpaceX/Seattle (US) in LEO that was launched on Thu, 04 May 2023 UTC via an FALCON 9 launch vehicle from the Air Force Eastern Test Range (AFETR). Payload-class satellites include a variety of spacecraft equipped with specific instruments for various scientific and technological missions. These include communications satellites like Starlink; space stations such as the ISS; scientific satellites like the Hubble; Earth observation satellites from companies like Planet Labs, Umbra, and HawkEye 360; GPS; miniature CubeSats for education and research; and military/defense satellites.

Loading next visibility...
Identifier
56377, 2023-061D
Orbit
LEO
Country
Flag of USUS
Related business
Manufacturer
SpaceX/Seattle
Mission
Operational Commercial Communications
Bus & Motor
STARLINK, Unknown motor
Mass
305 kg wet, ~290 kg dry
Launch date (UTC)
2023-05-04 (3 years ago)
Launch vehicle
FALCON 9
Launch site
Air Force Eastern Test Range (AFETR)
Object type
Payload
Rocket body
Debris
Shape & HBR
Box + 1 Pan, 10.1 m
Radar Cross Section
11.087 m², Large (>1 m²)

Expand to show TLE details & history
Last TLE update: 3 days ago

TLE from 3 days ago
0 STARLINK-6189
1 56377U 23061D   26170.56091180 -.00000159  00000-0  37525-5 0  9999
2 56377  43.0015 343.0919 0001279 272.2913  87.7793 15.27575262172325
Epoch: 2026-06-19T13:27Z
TLE epoch observation values (Epoch: 2026-06-19T13:27:42.779Z)
Latitude
0.00004°
Longitude
-126.62443°
Altitude
482.805 km
Speed
7.626 km/s
True Right ascension
22h 52m 22s
True Declination
0° 00' 00"
Sunlit
Object was in daylight at epoch
Visualization orbit readout
Latitude
Unknown
Longitude
Unknown
Altitude
Unknown
Speed
Unknown
Apparent Right ascension
Unknown
Apparent Declination
Unknown
Sunlit
N/A
Visualization observer readout
Local Sidereal Time
21:30:56
Azimuth
Unknown
Elevation
Unknown
Doppler factor
Unknown
Orbital elements
Apogee altitude
485.886 km
Perigee altitude
484.13 km
Semi-major axis
6,863.145 km
Eccentricity
0.00013
Inclination
43.0015°
RAAN
343.0919°
Arg. of periapsis
272.2913°
True anomaly
87.79395°
Mean anomaly
87.7793°
Eccentric anomaly
87.78662°
Mean motion
3.81732 °/min
Orbital period
94.31 mins
BSTAR
0.0000037525
Loading maneuver chart data...
Computing Atmospheric mass density...
Loading historical data...
Loading historical data...
Loading historical data...
Loading historical data...
Loading historical data...
Loading historical data...
Loading historical data...

Documentation

Showing up to 5 results
|